Weather in Duplyatsky

Russia / Volgograd Oblast     51°06′35″N   42°21′01″E
temp.,
°C
wind,
m/s
gust,
m/s
humid.,
%
clouds,
%
prec.,
mm/h
press.,
hPa
HPBL,
m
25 july, sun
sun2500:00+17ene346916 0.0 101558
03:00+16ne3371100 0.0 101731
06:00+17ene2368100 0.0 101869
09:00+19ene2365100 0.0 1019222
12:00+23se334675 0.0 1020803
15:00+26se223571 0.0 10202119
18:00+23ne464526 0.0 1020202
21:00+19ene33484 0.0 102131
26 july, mon
mon2600:00+18ene2253100 0.0 102322
03:00+16ese225733 0.0 102312
06:00+17ene22575 0.0 102467
09:00+23e22415 0.0 1024617
12:00+27e22317 0.0 10232543
15:00+28ne122734 0.0 10222810
18:00+27nne223184 0.0 10221971
21:00+20ne46470 0.0 102286
27 july, tue
tue2700:00+18ese33500 0.0 102327
03:00+16sse22530 0.0 102315
06:00+18ssw12525 0.0 102347
09:00+25wsw11365 0.0 1023555
12:00+28nw132821 0.0 10212682
15:00+29nnw3427100 0.0 10203055
18:00+27nne343452 0.0 10191187
21:00+23e114211 0.0 102012
28 july, wed
wed2800:00+21ene11475 0.0 102013
03:00+18wsw11575 0.0 102011
06:00+20nw11571 0.0 101923
09:00+26sw224040 0.0 1019715
12:00+29wsw233297 0.0 10172930
15:00+30w232977 0.0 10162661
18:00+30s133187 0.0 10151413
21:00+24se46425 0.0 1014125
29 july, thu
thu2900:00+21s334649 0.0 101440
03:00+22ssw354266 0.0 101294
06:00+22wsw4957100 0.0 1012290
09:00+24wsw6106321 1.4 1012869
12:00+30w78425 0.0 10101946
15:00+32wnw783193 0.0 10093071
18:00+26nw5853100 0.1 1010515
21:00+23wsw3464100 0.1 101082